Погода в Окоре

Чехия     50°09′43″N   14°15′32″E
темп.,
°C
ветер,
м/с
пор.,
м/с
влажн.,
%
обл.,
%
осадки,
мм/ч
давл.,
гПа
погр.,
м
18 апреля, вс
вс1823:00+3зсз229097 0.0 102163
02:00+3зсз118981 0.0 102121
05:00+3з119199 0.0 102010
08:00+4з128798 0.0 1020126
11:00+7зсз227795 0.0 1020728
14:00+10ссз126176 0.1 10191224
17:00+11вюв115582 0.1 10181260
20:00+7всв227992 0.2 101911
19 апреля, пн
пн1923:00+6с119098 0.2 102010
02:00+5зсз1190100 0.3 101910
05:00+6в1189100 0.0 101911
08:00+7ссз118499 0.0 1019107
11:00+10св3466100 0.1 10191079
14:00+12ссв2456100 0.2 10171469
17:00+12ссв5662100 0.5 10161194
20:00+8ссв3583100 0.8 1017153
20 апреля, вт
вт2023:00+7сз2288100 0.0 101725
02:00+5сз229261 0.0 101611
05:00+5ссз119271 0.0 101625
08:00+7с228518 0.0 1017179
11:00+12в235037 0.1 10161635
14:00+13зсз124292 0.1 10151790
17:00+14зсз12428 0.0 10141501
20:00+10зсз225866 0.0 101511
21 апреля, ср
ср2123:00+8зсз227236 0.0 101519
02:00+6з228362 0.0 101612
05:00+5зюз229071 0.0 101614
08:00+8з247980 0.0 1016191
11:00+13сз34573 0.1 10161350
14:00+15сз564160 0.3 10142462
17:00+15ссз564191 0.0 10141896
20:00+10ссз116697 0.0 101510
22 апреля, чт
чт2223:00+9зсз258083 0.2 1017187
02:00+7сз587991 0.3 1018724
05:00+3сз3778100 0.0 1020249
08:00+4сз586297 0.0 1021686
11:00+7зсз68445 0.0 10211635
14:00+10зсз71037100 0.0 10202643
17:00+8сз7946100 0.0 10211698
20:00+5зсз486694 0.0 1022255